• MPC Preparation (Info)

  • MPEC 2014-F27 : 2014 FX6

    The following Minor Planet Electronic Circular may be linked-to from your own Web pages, but must not otherwise be redistributed electronically.

    A form allowing access to any MPEC is at the bottom of this page.


    Read MPEC 2014-F26 Read MPEC 2014-F28


    M.P.E.C. 2014-F27                                Issued 2014 Mar. 24, 10:07 UT
    
         The Minor Planet Electronic Circulars contain information on unusual
             minor planets and routine data on comets.  They are published
       on behalf of Commission 20 of the International Astronomical Union by the
              Minor Planet Center, Smithsonian Astrophysical Observatory,
                              Cambridge, MA 02138, U.S.A.
    
                 Prepared using the Tamkin Foundation Computer Network
    
                                  MPC@CFA.HARVARD.EDU
                URL https://www.minorplanetcenter.net/    ISSN 1523-6714
    
                                       2014 FX6
    
    Observations:
         K14F06X* C2014 03 22.15749 10 02 08.99 +16 58 21.6          21.7 VqEF027G96
         K14F06X  C2014 03 22.16503 10 02 14.99 +16 57 46.1          21.8 VqEF027G96
         K14F06X  C2014 03 22.17263 10 02 21.10 +16 57 11.0          21.4 VqEF027G96
         K14F06X  C2014 03 22.18018 10 02 27.07 +16 56 36.3          20.9 VqEF027G96
         K14F06X  C2014 03 22.21838 10 02 57.36 +16 53 36.9          19.9 VqEF027G96
         K14F06X  C2014 03 22.22128 10 02 59.67 +16 53 23.3          20.1 VqEF027G96
         K14F06X  C2014 03 23.16623 10 15 16.42 +15 42 04.9          20.0 VqEF027G96
         K14F06X  C2014 03 23.16823 10 15 17.79 +15 41 56.9          20.5 VqEF027G96
         K14F06X  C2014 03 23.16891 10 15 18.29 +15 41 53.8          20.1 VqEF027G96
         K14F06X KC2014 03 24.17043 10 26 36.65 +14 32 36.0          20.3 RqEF027H36
         K14F06X KC2014 03 24.18338 10 26 44.41 +14 31 42.5          21.0 RqEF027H36
         K14F06X KC2014 03 24.19636 10 26 52.25 +14 30 53.2          20.9 RqEF027H36
         K14F06X  C2014 03 24.29428 10 27 51.73 +14 24 38.4                qEF027G96
         K14F06X  C2014 03 24.29478 10 27 52.04 +14 24 36.7          20.9 VqEF027G96
         K14F06X  C2014 03 24.29527 10 27 52.36 +14 24 35.2          20.3 VqEF027G96
         K14F06X  C2014 03 24.29577 10 27 52.64 +14 24 32.8          20.9 VqEF027G96
    
    Observer details:
    G96 Mt. Lemmon Survey.  Observers R. A. Kowalski, R. E. Hill.  Measurers
        E. J. Christensen, A. R. Gibbs, A. D. Grauer, R. E. Hill, J. A. Johnson,
        R. A. Kowalski, S. M. Larson, F. C. Shelly.  1.5-m reflector + CCD.
    H36 Sandlot Observatory, Scranton.  Observer G. Hug.  0.56-m reflector + CCD.
    
    Orbital elements:
    2014 FX6                                                 Earth MOID = 0.0027 AU
    Epoch 2014 May 23.0 TT = JDT 2456800.5                  MPC
    M  45.49360              (2000.0)            P               Q
    n   0.41600156     Peri.  320.01071     -0.46375664     -0.88594028
    a   1.7772127      Node   157.61692     +0.81702070     -0.43040520
    e   0.5067349      Incl.    0.94686     +0.34264698     -0.17280389
    P   2.37           H   24.7           G   0.15           U   8
    Residuals in seconds of arc
    140322 G96  0.2+  0.2-    140323 G96  0.0   0.3-    140324 G96  0.2-  0.2+
    140322 G96  0.2-  0.5-    140323 G96  0.2-  0.2+    140324 G96  0.0   0.5+
    140322 G96  0.4+  0.1-    140323 G96  0.2+  0.0     140324 G96  0.5+  0.9+
    140322 G96  0.3-  0.5+    140324 H36  0.3-  0.4+    140324 G96  0.2+  0.5+
    140322 G96  0.1-  0.2+    140324 H36  0.6-  2.2-
    140322 G96  0.1+  0.2+    140324 H36  0.3+  0.4-
    
    Ephemeris:
    2014 FX6                 a,e,i = 1.78, 0.51, 1                   q = 0.8766
    Date    TT    R. A. (2000) Decl.     Delta      r     Elong.  Phase     V
    2014 02 22    01 45 49.6 +09 37 12   0.1487  0.9119    54.9   117.4    25.0
    ...
    2014 03 09    04 13 44.2 +22 58 09   0.06374 0.9810    77.5    98.8    22.3
    ...
    2014 03 17    08 15 52.9 +24 32 16   0.05740 1.0284   124.4    52.9    20.5
    ...
    2014 03 23    10 13 11.1 +15 54 47   0.08318 1.0674   147.2    30.4    20.8
    2014 03 24    10 24 46.0 +14 44 38   0.08885 1.0741   149.2    28.4    20.9
    2014 03 25    10 34 53.3 +13 40 47   0.09478 1.0809   150.9    26.7    21.0
    ...
    2014 03 31    11 15 32.1 +09 01 58   0.1342  1.1228   155.9    21.3    21.6
    ...
    2014 04 08    11 43 30.4 +05 31 03   0.1939  1.1808   155.9    20.3    22.5
    ...
    2014 04 23    12 10 47.4 +01 52 39   0.3233  1.2933   149.0    23.6    23.9
    
    A. U. Tomatic                (C) Copyright 2014 MPC           M.P.E.C. 2014-F27
    

    Read MPEC 2014-F26 Read MPEC 2014-F28


    MPEC number:

    Enter an MPEC number in one of the following forms:

    • 1997-B01 (the full form)
    • J97B01 (the packed version of the full form)
    • B01 (the abbreviated form)